User: anonymous   Login
Location: Gouvernes
(48.8601°N, 2.6907°E)
Time: 03:31:55
(UTC+00:00)
Language:

Cosmos 2369 - Orbit

View from above orbital plane
View from above orbital plane
View from above satellite
View from above satellite

Ground track
Ground track

The orbit data is extracted from the following two-line orbital elements,

1 26069U 00006A   22017.55531728 -.00000216  00000-0 -89712-4 0  9999
2 26069  70.9969  89.2133 0012945 224.7190 135.2889 14.13464029396195
Epoch (UTC): 17 January 2022 13:19:39
Eccentricity: 0.0012945
inclination: 70.9969°
perigee height: 838 km
apogee height: 857 km
right ascension of ascending node: 89.2133°
argument of perigee: 224.7190°
revolutions per day: 14.13464029
mean anomaly at epoch: 135.2889°
orbit number at epoch: 39619

The dashed part of the orbit path shows where the satellite is in the earth's shadow,  

DLR